Chadron, NE

6:57 PM MST on December 04, 2016 (GMT -0700)
Chadron Municipal

Weather History for KCDR - July, 2013

Change the Weather History Date:

Friday, July 19, 2013

  Actual Average Record
Temperature  
Mean Temperature 77 °F 74 °F  
Max Temperature 89 °F 91 °F 108 °F (2012)
Min Temperature 64 °F 58 °F 44 °F (1956)
Degree Days  
Heating Degree Days 0 0  
Month to date heating degree days 0 5  
Since 1 June heating degree days 58 86  
Since 1 July heating degree days 0 5  
Cooling Degree Days 12 10  
Month to date cooling degree days 226 156  
Year to date cooling degree days 366 284  
Since 1 June cooling degree days 338 264  
Growing Degree Days 27 (Base 50)    
Moisture  
Dew Point 57 °F    
Average Humidity 56    
Maximum Humidity 78    
Minimum Humidity 34    
Precipitation  
Precipitation 0.05 in 0.06 in 1.32 in (1977)
Month to date precipitation 1.15 1.35  
Year to date precipitation 9.99 11.53  
Sea Level Pressure  
Sea Level Pressure 30.01 in    
Wind  
Wind Speed 6 mph (SE)    
Max Wind Speed 20 mph    
Max Gust Speed 25 mph    
Visibility 10 miles    
Events Rain , Thunderstorm    
T = Trace of Precipitation, MM = Missing Value Source: NWS Daily Summary

Daily Weather History Graph

Daily Weather History Graph

Search for Another Location

Airport or City:

Trip Planner

Search our weather history database for the weather conditions in past years. The results will help you decide how hot, cold, wet, or windy it might be!

Date:

Astronomy

Jul. 19, 2013 Rise Set
Actual Time 5:31 AM MDT 8:25 PM MDT
Civil Twilight 4:57 AM MDT 8:59 PM MDT
Nautical Twilight 4:15 AM MDT 9:41 PM MDT
Astronomical Twilight 3:25 AM MDT 10:31 PM MDT
Moon 5:30 PM MDT (7/19) 2:14 AM MDT (7/19)
Length of Visible Light 16h 01m
Length of Day
14h 54m
Waxing Gibbous, 87% of the Moon is Illuminated
Jul 19
Waxing Gibbous
Jul 22
Full
Jul 29
Last Quarter
Aug 6
New
Aug 14
First Quarter

Hourly Weather History & Observations

Time (MDT) Temp. Heat Index Dew Point Humidity Pressure Visibility Wind Dir Wind Speed Gust Speed Precip Events Conditions
12:53 AM 73.9 °F - 57.0 °F 55% 29.96 in 10.0 mi NW 8.1 mph - N/A   Clear
1:53 AM 73.0 °F - 57.0 °F 57% 29.96 in 10.0 mi NNE 5.8 mph - N/A   Clear
2:53 AM 69.1 °F - 57.9 °F 68% 29.97 in 10.0 mi Calm Calm - N/A   Clear
3:53 AM 68.0 °F - 57.9 °F 70% 29.96 in 10.0 mi NNW 5.8 mph - N/A   Clear
4:53 AM 66.0 °F - 59.0 °F 78% 29.99 in 10.0 mi East 3.5 mph - N/A   Clear
5:53 AM 66.9 °F - 59.0 °F 76% 30.04 in 10.0 mi Calm Calm - N/A   Overcast
6:53 AM 68.0 °F - 60.1 °F 76% 30.05 in 10.0 mi Calm Calm - N/A   Mostly Cloudy
7:53 AM 70.0 °F - 57.9 °F 65% 30.06 in 10.0 mi SE 5.8 mph - N/A   Overcast
8:37 AM 71.6 °F - 57.2 °F 60% 30.13 in 10.0 mi ESE 5.8 mph - N/A Thunderstorm Partly Cloudy
8:53 AM 73.0 °F - 55.9 °F 55% 30.05 in 10.0 mi East 5.8 mph - N/A   Clear
9:42 AM 73.4 °F - 57.2 °F 57% 30.18 in 10.0 mi NNW 12.7 mph - N/A Thunderstorm Mostly Cloudy
9:53 AM 72.0 °F - 55.9 °F 57% 30.10 in 10.0 mi NNW 8.1 mph - N/A Thunderstorm Overcast
10:49 AM 66.2 °F - 60.8 °F 83% 30.16 in 10.0 mi Calm Calm - 0.03 in Rain Light Rain
10:53 AM 66.0 °F - 61.0 °F 84% 30.10 in 10.0 mi Calm Calm - 0.03 in Rain , Thunderstorm Light Rain
11:14 AM 66.2 °F - 60.8 °F 83% 30.18 in 10.0 mi WNW 6.9 mph 25.3 mph 0.00 in   Overcast
11:53 AM 66.9 °F - 60.1 °F 79% 30.13 in 10.0 mi NW 8.1 mph - 0.00 in Rain Light Rain
12:53 PM 71.1 °F - 61.0 °F 70% 30.06 in 10.0 mi Variable 4.6 mph - 0.02 in   Clear
1:53 PM 75.9 °F - 60.1 °F 58% 30.03 in 10.0 mi SE 3.5 mph - N/A   Partly Cloudy
2:53 PM 80.1 °F 80.9 °F 60.1 °F 50% 30.01 in 10.0 mi East 5.8 mph - 0.00 in   Scattered Clouds
3:53 PM 82.0 °F 81.4 °F 55.0 °F 39% 29.98 in 10.0 mi Variable 3.5 mph - N/A   Clear
4:53 PM 84.9 °F 84.2 °F 57.9 °F 40% 29.94 in 10.0 mi ESE 9.2 mph - N/A   Clear
5:53 PM 88.0 °F 86.5 °F 55.9 °F 34% 29.90 in 10.0 mi SE 13.8 mph - N/A   Clear
6:53 PM 88.0 °F 86.1 °F 55.0 °F 32% 29.89 in 10.0 mi South 10.4 mph - N/A   Clear
7:53 PM 84.0 °F 82.5 °F 53.1 °F 34% 29.89 in 10.0 mi South 17.3 mph 23.0 mph N/A   Clear
8:53 PM 78.1 °F - 53.1 °F 42% 29.89 in 10.0 mi South 9.2 mph - N/A   Clear
9:53 PM 71.1 °F - 54.0 °F 55% 29.93 in 10.0 mi South 4.6 mph - N/A   Clear
10:53 PM 73.0 °F - 53.1 °F 49% 29.92 in 10.0 mi SSW 8.1 mph - N/A   Clear
11:53 PM 73.0 °F - 54.0 °F 51% 29.91 in 10.0 mi WSW 5.8 mph - N/A   Clear